Flag for Norway Weather past 2 weeks in Langesund, Norway

Now
74 °F

Mild.


Feels Like: 75 °F
Forecast: 61 / 77 °F
Wind: 9 mph from Southwest

Location: Jomfruland Fyr

Current Time: Jul 28, 2014 at 5:09:13 PM

Latest Report: Jul 28, 2014 at 4:00 PM


Visibility: N/A

Pressure: 29.91 "Hg

Humidity: 72%

Dew point: 64 °F

Location of LangesundLocation

Historic Weather in Langesund — Graph

°F

Langesund temperature yesterday

Maximum temperature yesterday: 74 °F (at 5:00 PM)
Minimum temperature yesterday: 66 °F (at 11:00 PM)
Average temperature yesterday: 71 °F

Past Weeks' High & Low Weather Summary

 TemperatureHumidityPressure
High83 °F (Jul 21, 4:00 PM)92% (Jul 28, 12:00 AM)30.30 "Hg (Jul 28, 12:00 AM)
Low57 °F (Jul 19, 5:00 AM)30% (Jul 21, 4:00 PM)29.59 "Hg (Jul 14, 1:00 AM)
Average69 °F71%30.03 "Hg
* Reported Jul 13 3:00 PM — Jul 28 3:00 PM, Langesund, Weather by CustomWeather, © 2014

Note: Actual official high and low records may vary slightly from our data, if they occured in-between our weather recording intervals... More about our weather records

Advertising

Langesund weather history for previous 24 hours

 ConditionsComfort  
Time TempWeatherWind HumidityBarometerVisibility
3:00 PM
Jul 28
74 °FMild.8 mph71%29.92 "HgN/A
2:00 PM74 °FMild.7 mph69%29.93 "HgN/A
1:00 PM74 °FMild.6 mph72%29.94 "HgN/A
12:00 PM74 °FMild.3 mph69%29.94 "HgN/A
11:00 AM74 °FMild.3 mph72%29.95 "HgN/A
10:00 AM72 °FMild.2 mph73%29.94 "HgN/A
9:00 AM72 °FMild.1 mph74%29.94 "HgN/A
8:00 AM69 °FMild.1 mph82%29.95 "HgN/A
7:00 AM67 °FMild.1 mph89%29.94 "HgN/A
6:00 AM65 °FMild.2 mph92%29.93 "HgN/A
5:00 AM65 °FMild.2 mph91%29.93 "HgN/A
4:00 AM66 °FMild.1 mph91%29.92 "HgN/A
3:00 AM66 °FMild.1 mph92%29.92 "HgN/A
2:00 AM66 °FMild.2 mph92%29.92 "HgN/A
1:00 AM65 °FMild.1 mph92%29.92 "HgN/A
12:00 AM66 °FMild.1 mph92%29.92 "HgN/A
11:00 PM
Jul 27
66 °FMild.No wind89%29.92 "HgN/A
10:00 PM67 °FMild.1 mph86%29.92 "HgN/A
9:00 PM70 °FMild.1 mph77%29.90 "HgN/A
8:00 PM71 °FMild.2 mph73%29.90 "HgN/A
7:00 PM73 °FMild.2 mph74%29.90 "HgN/A
6:00 PM72 °FMild.3 mph75%29.90 "HgN/A
5:00 PM74 °FMild.3 mph74%29.90 "HgN/A
Weather by CustomWeather, © 2014

See weather overviewHow to use our weather pages